This demonstration page uses our WeatherBlox Daily Observations layout. Learn more.

Left ArrowRight Arrow

38.83388, -104.82136

Hourly Observations for January 26, 2015

Temp ( °F °C ) Dew Point ( °F °C ) Humidity (%) Winds ( mph kmh ) Pressure ( in mb ) Visibility ( mi km ) Precip ( " mm )
12:56 am 00:56 Clear 49 9.2 18 -7.6 30 30 NE 2 4 29.86 1011 10 16 N/A
1:56 am 01:56 Clear 48 9 18 -7.7 30 30 NNW 8 13 29.86 1011 10 16 N/A
2:56 am 02:56 Clear 47 8.6 18 -7.8 31 31 N 10 17 29.86 1011 10 16 N/A
3:56 am 03:56 Clear 48 8.7 19 -7.4 32 32 SSW 5 7 29.88 1012 10 16 N/A
4:56 am 04:56 Clear 48 8.7 20 -6.7 33 33 S 5 7 29.88 1012 10 16 N/A
5:56 am 05:56 Clear 45 7.4 20 -6.7 36 36 SSW 5 7 29.93 1014 10 16 N/A
6:56 am 06:56 Clear 45 7.1 21 -6.2 39 39 WSW 2 4 29.93 1013 10 16 N/A
7:56 am 07:56 Sunny 53 11.7 18 -7.8 25 25 S 6 9 29.92 1013 10 16 N/A
8:56 am 08:56 Sunny 54 12.2 19 -7 26 26 SE 5 7 29.95 1014 10 16 N/A
9:56 am 09:56 Sunny 55 12.5 21 -6.2 27 27 ESE 3 6 29.93 1014 10 16 N/A
10:56 am 10:56 Sunny 54 12.3 20 -6.4 27 27 SE 2 4 29.94 1014 10 16 N/A
11:56 am 11:56 Sunny 56 13.6 23 -5.1 27 27 NE 2 4 29.89 1012 10 16 N/A
12:56 pm 12:56 Sunny 59 14.9 19 -7.4 21 21 N 10 17 29.85 1011 10 16 N/A
1:56 pm 13:56 Sunny 55 13 21 -6.3 26 26 WNW 5 7 29.86 1011 10 16 N/A
2:56 pm 14:56 Sunny 54 12.1 23 -5.2 30 30 WSW 5 7 29.88 1012 10 16 N/A
3:56 pm 15:56 Sunny 58 14.2 23 -5.1 26 26 SSW 7 11 29.86 1011 10 16 N/A
4:56 pm 16:56 Sunny 57 14.1 20 -6.6 23 23 SSW 8 13 29.85 1011 10 16 N/A
5:56 pm 17:56 Clear 51 10.5 22 -5.6 32 32 WNW 7 11 29.89 1012 10 16 N/A
6:56 pm 18:56 Clear 50 10.2 22 -5.8 32 32 NW 9 15 29.90 1013 10 16 N/A
7:56 pm 19:56 Clear 47 8.3 23 -4.9 39 39 W 2 4 29.89 1012 10 16 N/A
8:56 pm 20:56 Clear 47 8.3 23 -4.9 39 39 WNW 5 7 29.88 1012 10 16 N/A
9:56 pm 21:56 Clear 46 8 22 -5.3 39 39 NW 3 6 29.88 1012 10 16 N/A
10:56 pm 22:56 Clear 50 10.2 19 -7 29 29 S 3 6 29.86 1011 10 16 N/A
11:56 pm 23:56 Clear 51 10.8 18 -8 26 26 NW 2 4 29.85 1011 10 16 N/A

Powered by AerisWeather